BRITE-PL2 (HEWELIUSZ) (40119 NORAD) Tracking and Keplerian Element Data

This shows tracking and keplerian element data for the satellite.

Feedback or suggestion? Click here.




ElementValue
Catalog40119
NameBRITE-PL2 (HEWELIUSZ)
Epoch Orbit56707
Epoch Day34.81443771
Epoch Year2025
RAAN139.9453
Inclination97.8834
Eccentricity0.0014304
Argument of Perigee324.2872
Mean Anonmoly35.7389
Mean Motion14.91482429
Decay Rate4.611E-05
L11 40119U 14049B 25034.81443771 .00004611 00000+0 46558-3 0 9994
L22 40119 97.8834 139.9453 0014304 324.2872 35.7389 14.91482429567074



Live tracking and technical data element details for BRITE-PL2 (HEWELIUSZ) (NORAD 40119). BRITE-PL2 (HEWELIUSZ) can be tracked NOW for your location showing map with azimuth and elevation plus other details from your city location.







IsCatalogInMostPopularTable: catalog: 40119, numindb: 562
Update: records affected: 1



GetName: 40119 BRITE-PL2 (HEWELIUSZ)

Hit Count: updated at: Thu, 15 May 2025 10:04:51 GMT